This demonstration page uses our WeatherBlox Daily Observations layout. Learn more.

Left ArrowRight Arrow

Hourly Observations for July 16, 2016

Temp ( °F °C ) Dew Point ( °F °C ) Humidity (%) Winds ( mph kmh ) Pressure ( in mb ) Visibility ( mi km ) Precip ( " mm )
12:53 am 00:53 Mostly Cloudy 70 21.1 63 17.2 79 79 N N/A 30.04 1017 10 16 N/A
1:53 am 01:53 Clear 66 18.9 62 16.7 87 87 N N/A 30.03 1017 10 16 N/A
2:53 am 02:53 Clear 66 18.9 63 17.2 90 90 NW 3 6 30.03 1017 10 16 N/A
3:53 am 03:53 Partly Cloudy 66 18.9 63 17.2 90 90 N N/A 30.03 1017 10 16 N/A
4:53 am 04:53 Mostly Clear 65 18.3 62 16.7 90 90 N N/A 30.04 1017 10 16 N/A
5:53 am 05:53 Mostly Clear 67 19.4 61 16.1 81 81 WNW 3 6 30.05 1018 10 16 N/A
6:53 am 06:53 Sunny 64 17.8 60 15.6 87 87 WNW 5 7 30.08 1019 10 16 N/A
7:53 am 07:53 Sunny 68 20 62 16.7 81 81 N N/A 30.08 1019 10 16 N/A
8:53 am 08:53 Sunny 72 22.2 61 16.1 68 68 NNE 3 6 30.09 1019 10 16 N/A
9:53 am 09:53 Sunny 74 23.3 63 17.2 69 69 NW 5 7 30.10 1019 10 16 N/A
10:53 am 10:53 Sunny 77 25 62 16.7 60 60 N N/A 30.11 1020 10 16 N/A
11:53 am 11:53 Mostly Sunny 78 25.6 63 17.2 60 60 NW 7 11 30.11 1020 10 16 N/A
12:53 pm 12:53 Sunny 78 25.6 63 17.2 60 60 NW 9 15 30.12 1020 10 16 N/A
1:53 pm 13:53 Mostly Sunny 80 26.7 63 17.2 56 56 NNW 7 11 30.12 1020 10 16 N/A
2:53 pm 14:53 Mostly Cloudy 80 26.7 61 16.1 52 52 NNE 3 6 30.11 1020 10 16 N/A
3:53 pm 15:53 Mostly Cloudy 82 27.8 62 16.7 51 51 VRB 6 9 30.10 1019 10 16 N/A
4:53 pm 16:53 Mostly Sunny 81 27.2 60 15.6 49 49 WNW 5 7 30.08 1019 10 16 N/A
5:53 pm 17:53 Partly Cloudy 82 27.8 61 16.1 49 49 NW 7 11 30.07 1018 10 16 N/A
6:53 pm 18:53 Mostly Sunny 82 27.8 61 16.1 49 49 NW 6 9 30.08 1019 10 16 N/A
7:53 pm 19:53 Sunny 80 26.7 61 16.1 52 52 NW 7 11 30.08 1019 10 16 N/A
8:53 pm 20:53 undefined 74 23.3 64 17.8 71 71 N N/A 30.10 1019 N/A N/A
9:53 pm 21:53 Clear 68 20 63 17.2 84 84 N N/A 30.11 1020 10 16 N/A
10:53 pm 22:53 Clear 66 18.9 62 16.7 87 87 N N/A 30.12 1020 10 16 N/A
11:53 pm 23:53 Clear 64 17.8 61 16.1 90 90 N N/A 30.13 1020 10 16 N/A

Powered by AerisWeather